C/2016 N6 ( PanSTARRS )

Japanese version
Home page
Updated on May 22, 2017

---------------------------------------------------------------------

* Profile

Discovery Date July 14, 2016
Magnitude 20.7 mag
Discoverer Pan-STARRS 1 telescope (Haleakala)

* Pictures

* Orbital Elements

Epoch 2018 July 21.0 TT = JDT 2458320.5
T 2018 July 18.22638 TT                                 MPCW
q   2.6691700            (2000.0)            P               Q
z  +0.0004798      Peri.  162.80511     -0.53334566     +0.08478932
 +/-0.0000023      Node   298.97592     +0.61778267     +0.71869985
e   0.9987195      Incl.  105.83211     +0.57782955     -0.69013136
From 338 observations 2016 June 27-2017 May 3, mean residual 0".4.

* Finding Charts

* Magnitudes Graph

        m1 = 2.5 + 5 log d + 15.0 log r

---------------------------------------------------------------------

The orbital elements are published on M.P.E.C. 2017-J52.
The charts are made with StellaNavigator Ver.10 (AstroArts).
The magnitudes graphs are made with Comet for Windows.

---------------------------------------------------------------------

Copyright(C) Seiichi Yoshida (comet@aerith.net). All rights reserved.